Wind_Speed
3 4 6 3 6 11 11 12 13 20 23 17 21 23 22 17 19 21 16 15 18 19 16 20 28 30 37 37 36 40 38 34 35 33 32 32 35 38 40 40 41 40 37 35
5 10 6 10 14 18 18 15 18 18 19 14 16 22 21 16 18 18 19 16 11 11 15 11 24 26 33 36 38 39 40 40 37 37 34 36 37 33 35 38 41 41 38 35
7 13 13 17 19 19 17 11 13 18 21 14 17 20 18 23 17 17 19 19 16 13 15 17 14 26 33 32 34 38 40 42 37 34 32 26 24 27 26 34 40 40 39 37
5 9 20 20 20 14 11 10 16 16 14 7 8 8 11 13 18 18 19 20 20 17 15 15 18 20 28 35 33 38 39 39 39 39 36 38 31 31 30 41 40 43 41 39
18 17 21 19 10 12 17 20 20 21 17 15 17 6 7 15 16 18 19 19 21 18 15 14 17 25 30 32 35 37 39 38 37 41 38 38 31 27 26 28 32 41 41 40
14 15 6 5 13 17 14 15 20 16 10 10 22 10 9 15 16 11 16 18 19 18 16 16 19 26 29 29 34 37 39 37 38 39 39 39 35 30 30 29 35 37 41 41
13 7 5 1 16 10 9 11 4 4 2 6 4 9 16 10 20 18 12 15 17 20 15 15 15 16 25 29 35 35 38 37 39 37 38 38 38 38 39 40 38 35 38 44
7 13 6 10 6 8 16 6 6 6 4 12 10 7 1 14 20 18 21 10 12 16 14 16 15 16 21 33 34 35 36 35 38 38 38 37 39 38 37 39 37 39 42 40
6 7 12 9 13 2 7 10 14 6 9 6 5 4 5 22 18 13 12 11 8 13 14 17 19 17 23 25 35 38 37 37 39 37 37 35 37 34 34 38 37 35 34 40
3 8 7 13 5 1 8 8 8 3 4 6 7 5 9 24 24 21 15 12 14 11 12 13 15 14 23 27 31 34 36 37 39 39 37 36 36 37 37 39 38 39 39 42
4 3 10 7 4 12 8 8 5 5 4 3 5 4 13 22 21 20 19 12 13 11 11 11 14 19 25 25 28 30 31 32 34 36 35 34 33 35 39 40 41 42 44 42
3 2 5 13 6 7 13 12 12 2 4 4 4 2 19 24 24 24 5 7 3 1 4 10 13 13 20 25 27 30 30 30 34 33 34 33 34 34 35 35 37 41 44 43
6 2 7 8 1 2 6 21 13 13 4 5 5 7 20 25 29 26 18 13 12 10 9 8 6 14 14 21 26 29 29 30 31 32 33 33 34 34 32 33 37 39 39 41
7 3 4 6 12 9 13 24 18 14 4 10 4 19 23 32 27 30 24 15 15 15 14 13 12 8 4 18 25 28 31 33 34 32 32 33 35 36 36 37 38 39 41 42
2 4 10 15 10 5 15 21 19 14 15 8 19 16 18 25 22 23 17 17 19 18 18 14 12 10 10 7 18 29 30 32 35 34 34 33 34 35 34 37 38 38 39 39
3 4 12 3 3 4 7 19 17 11 15 16 19 14 22 20 19 20 17 17 19 17 17 16 14 14 12 13 10 21 29 30 33 32 30 30 31 33 36 37 37 37 37 37
3 5 5 4 10 6 3 16 18 14 9 19 19 20 23 24 20 14 18 19 17 17 17 16 14 12 13 12 9 7 23 28 30 30 30 31 31 31 34 34 34 33 35 37
6 7 3 4 8 3 5 14 11 15 7 24 24 27 27 27 21 11 20 19 19 18 17 15 12 14 17 14 6 2 19 27 27 26 26 30 31 30 33 33 33 33 34 35
4 3 4 3 4 1 5 23 16 11 7 25 26 26 25 25 15 9 24 19 17 16 14 14 17 16 16 16 11 2 13 22 24 26 29 29 31 31 32 32 32 33 33 33
6 3 1 4 4 6 9 18 24 8 2 25 22 22 23 21 15 13 22 19 18 19 20 21 22 20 21 24 15 3 13 20 20 24 26 30 32 33 31 32 31 32 32 32
6 4 4 6 3 3 14 15 17 8 8 24 19 19 17 14 10 12 16 18 20 20 22 22 20 19 21 25 19 15 13 13 18 23 27 27 30 32 31 31 31 31 31 31
1 3 3 4 4 4 17 7 7 8 13 18 19 18 18 17 15 15 16 17 17 17 25 27 22 21 24 26 22 17 15 4 19 30 30 29 29 29 32 34 32 32 34 32
3 3 2 1 3 8 13 8 9 14 16 15 18 17 16 15 15 16 14 15 14 19 20 22 20 20 24 26 24 17 15 4 21 31 32 33 32 32 34 37 35 33 33 29
3 1 2 5 2 9 14 4 14 16 17 19 14 13 14 14 13 13 12 13 13 19 20 21 20 20 21 25 23 18 13 7 21 31 31 32 33 32 30 30 32 31 29 27
3 3 4 5 4 13 1 14 14 19 19 16 14 11 11 11 11 10 10 12 14 17 19 18 18 18 20 23 22 18 13 11 20 23 26 27 27 29 28 25 26 27 27 31
1 2 0 4 7 7 14 15 22 19 16 13 9 11 12 11 10 11 9 15 15 17 19 18 19 19 21 20 20 17 14 14 21 23 23 23 26 26 27 29 26 20 20 20
Wind_Direction
326 328 314 284 295 281 284 283 273 278 284 277 274 277 280 282 282 286 302 224 218 222 223 196 184 182 178 179 182 176 168 172 163 160 159 160 166 172 173 179 179 182 183 183
320 294 282 299 300 308 300 286 277 286 277 292 278 270 281 277 271 254 270 283 289 219 214 208 190 181 182 178 184 178 168 169 167 166 170 170 170 171 172 177 180 182 184 183
285 283 298 304 314 308 294 278 270 268 288 297 277 276 272 269 263 260 235 257 267 274 226 214 198 187 180 176 177 178 167 169 168 165 159 155 154 154 159 176 181 184 185 185
282 286 301 309 302 304 298 281 284 287 303 292 338 294 272 256 249 243 232 228 247 253 242 213 202 195 185 181 180 174 167 169 168 166 163 160 160 165 182 181 182 184 187 187
301 307 308 302 293 337 291 287 285 285 275 282 268 258 268 246 269 238 231 222 227 231 223 210 201 195 189 175 176 168 166 172 168 168 169 167 171 176 170 169 176 182 187 190
296 296 272 252 309 309 303 291 283 270 254 263 254 210 245 232 232 232 215 214 212 218 206 205 197 196 189 176 169 168 168 171 171 172 174 175 175 168 163 169 175 181 187 190
331 305 308 285 338 299 319 311 320 349 196 242 253 193 234 220 224 246 240 215 204 226 202 191 188 190 175 174 172 167 170 173 172 174 176 179 180 178 178 179 177 178 182 189
334 327 353 330 326 299 308 328 309 303 302 290 269 223 317 243 238 229 235 228 217 222 198 184 182 190 183 177 173 170 173 171 173 176 180 182 185 182 181 180 181 185 188 188
317 287 328 300 327 10 321 347 299 277 266 255 251 351 58 355 360 316 340 307 215 201 184 189 188 190 186 180 182 177 177 175 175 178 181 182 184 182 182 184 187 185 188 192
270 290 289 325 9 87 291 334 327 333 299 311 316 76 16 354 337 324 316 281 233 216 199 177 181 184 185 181 178 179 180 180 177 178 183 182 185 188 188 184 184 187 191 196
255 184 290 314 3 350 346 340 340 265 261 295 311 88 12 345 327 313 296 244 238 208 185 183 181 184 181 182 180 178 176 177 173 177 180 181 182 184 190 186 189 189 194 195
251 244 282 296 325 83 43 350 342 285 334 326 271 323 6 343 337 338 37 93 102 128 152 186 174 170 175 178 179 179 176 176 174 178 178 179 181 182 185 183 183 192 196 195
341 288 310 330 113 40 6 10 347 347 306 7 345 314 333 337 358 355 7 43 65 71 81 82 122 166 168 177 174 175 175 176 171 172 176 177 177 180 181 181 187 194 193 189
353 269 247 271 286 313 13 8 1 8 358 324 2 318 336 347 348 354 1 14 51 53 57 63 58 58 135 176 171 168 172 173 168 171 176 178 176 180 182 184 191 187 194 192
74 275 313 301 286 131 49 12 353 15 0 19 325 328 342 338 344 349 350 357 39 36 40 37 45 47 50 99 181 175 171 171 167 174 175 180 178 177 177 183 186 191 192 193
336 287 322 280 311 44 60 14 359 350 10 9 353 344 338 337 344 356 351 1 26 27 31 30 33 37 37 40 47 181 178 173 170 176 174 173 171 172 179 183 183 186 186 189
312 321 324 280 333 331 16 13 347 341 19 19 7 330 330 345 340 17 349 11 15 16 19 16 16 19 20 20 23 121 174 172 174 171 166 165 165 166 175 179 182 182 186 190
293 320 282 298 316 53 163 3 341 330 23 11 349 347 346 342 337 22 2 6 4 8 7 5 7 5 5 6 17 84 169 171 166 160 163 160 162 163 168 173 174 176 177 175
227 307 312 325 314 292 9 350 348 338 315 19 346 340 339 340 327 352 1 1 360 359 359 357 1 7 5 5 354 19 154 162 163 158 161 160 162 161 164 168 169 173 173 175
344 336 73 329 334 5 360 336 334 309 248 0 337 335 333 340 5 352 344 351 353 360 359 1 4 5 11 4 7 141 149 157 159 164 163 163 166 167 167 171 171 173 176 174
337 351 12 348 344 92 358 343 327 41 308 322 325 325 330 347 340 321 340 348 352 354 1 5 14 21 9 6 25 48 117 128 155 154 159 160 168 170 170 168 170 166 160 161
277 347 341 334 2 12 11 336 31 303 305 319 320 324 338 339 337 347 350 351 351 356 1 6 8 10 14 18 27 30 38 63 147 163 162 164 167 163 165 167 160 162 161 156
0 164 240 270 299 349 330 288 299 331 324 323 321 323 333 334 343 348 349 352 351 360 1 1 5 6 16 20 26 23 20 54 155 162 162 165 167 168 171 168 159 155 158 150
341 5 239 339 43 318 313 304 342 331 324 315 311 328 329 334 342 349 355 357 355 359 1 0 6 11 13 14 27 33 36 84 149 150 151 157 159 158 159 157 157 153 152 151
224 360 318 269 301 319 246 325 321 322 318 316 330 334 335 339 347 346 354 2 2 2 1 6 10 9 12 18 24 35 56 102 113 113 125 128 132 138 138 143 153 157 163 165
188 210 136 268 310 285 283 302 312 313 306 325 336 344 343 342 349 353 356 1 5 4 5 9 15 14 13 22 33 42 58 95 113 102 104 115 118 121 123 122 115 142 145 149
Height
788 791 794 786 785 779 778 780 780 764 747 747 735 724 712 710 702 704 698 683 684 685 690 691 695 703 708 716 724 729 737 748 754 763 770 778 784 791 799 805 812 820 826 832
791 792 786 780 774 774 772 774 772 757 743 740 730 717 705 708 700 693 697 696 689 684 687 686 687 694 702 709 719 725 731 741 749 756 765 771 779 788 796 802 811 818 824 830
799 787 781 776 773 774 767 768 765 756 741 737 728 720 709 695 693 691 685 688 691 687 683 682 683 688 695 702 711 720 726 735 744 754 763 773 781 788 796 802 808 815 821 827
795 781 776 775 770 763 767 749 744 744 744 748 728 720 697 685 679 679 677 677 680 683 680 679 679 684 688 697 709 716 722 732 740 749 758 764 772 781 787 792 802 809 818 824
789 782 775 773 765 761 761 746 742 739 744 747 730 739 705 693 677 670 665 665 665 673 674 675 674 677 686 694 704 709 719 730 736 743 752 761 770 780 783 794 801 807 815 821
789 776 775 770 762 758 748 747 735 729 731 737 714 725 695 686 666 655 651 654 657 660 664 668 671 675 681 689 698 706 714 725 733 741 749 757 765 774 783 791 798 805 811 818
784 775 772 767 769 754 752 752 755 762 743 736 697 715 687 664 657 652 651 648 651 650 656 662 669 672 678 685 693 702 710 720 729 739 746 753 760 768 776 782 790 799 805 811
810 785 773 764 773 768 760 753 748 741 723 700 685 692 674 662 653 646 644 646 647 647 651 656 663 667 673 680 689 697 707 716 725 735 743 752 758 764 771 779 787 794 799 805
811 789 767 763 755 764 755 753 746 734 723 719 676 663 654 676 673 665 666 654 643 641 645 650 656 661 667 674 682 692 702 712 721 731 740 749 755 760 768 776 783 792 798 804
816 810 772 760 760 763 764 757 750 754 742 716 664 674 694 694 689 672 668 659 642 640 642 647 654 660 664 671 679 689 699 706 716 726 735 744 751 757 764 772 779 787 795 800
815 821 783 769 766 774 759 763 755 749 738 727 701 685 709 712 698 680 660 648 639 635 639 643 650 656 662 670 678 685 695 705 712 721 731 739 748 755 760 767 775 780 789 795
813 815 812 779 772 771 778 778 764 752 732 722 713 696 707 712 697 673 639 640 640 637 639 640 645 653 661 667 676 683 692 701 707 718 727 736 744 751 758 764 771 777 784 792
805 813 798 779 775 770 778 777 771 756 747 740 743 731 714 713 688 684 656 645 641 641 643 647 649 652 657 664 672 680 688 698 706 714 724 732 740 747 756 761 768 773 782 789
806 806 804 800 789 784 787 785 777 773 766 761 752 753 727 716 705 690 677 668 659 656 656 657 658 659 659 663 669 678 687 694 701 712 721 728 734 743 751 757 765 772 778 784
820 812 790 787 780 787 789 797 786 778 779 776 768 758 746 734 721 709 697 684 669 669 666 667 668 668 667 668 671 676 684 692 697 708 715 724 732 740 747 754 762 769 775 782
816 811 796 788 770 775 785 795 790 782 779 773 766 757 753 740 729 718 710 698 686 684 680 677 675 674 674 673 673 678 682 690 697 706 713 722 730 737 744 751 759 767 774 779
828 812 805 785 766 769 783 802 796 788 787 786 778 773 755 739 734 725 719 703 700 695 687 685 684 682 681 681 678 680 684 690 697 705 712 720 728 735 741 749 757 764 772 777
826 817 801 790 771 774 797 802 798 789 787 782 773 762 750 737 732 725 717 709 703 700 697 694 691 687 685 684 683 682 684 689 697 704 712 717 725 732 740 748 755 762 769 775
825 819 817 802 782 772 793 797 801 798 778 787 782 769 761 748 735 725 723 718 714 710 705 701 697 694 689 686 683 682 683 688 694 701 708 716 723 730 738 745 752 759 766 773
820 822 817 807 789 790 828 812 795 787 784 788 791 780 769 756 740 740 732 728 723 719 713 707 701 695 690 688 683 682 684 688 694 700 706 713 719 726 735 742 749 756 765 771
841 844 828 817 811 815 824 812 795 804 815 803 798 788 777 768 765 754 744 734 728 724 718 713 708 704 700 692 688 685 687 692 698 702 708 715 721 726 734 742 750 758 765 772
868 867 843 826 825 815 825 815 822 827 816 807 795 787 776 770 763 756 749 742 735 727 719 714 710 707 704 700 695 694 694 696 698 703 709 717 722 728 734 742 750 758 764 771
867 873 869 850 831 833 832 832 825 823 817 805 797 786 782 776 767 762 756 750 743 737 730 724 718 714 709 706 703 701 699 697 700 703 709 716 722 728 734 740 748 757 764 771
869 870 868 858 842 840 832 827 825 819 816 808 800 793 784 776 771 766 759 753 747 741 735 731 725 720 717 713 710 709 705 703 702 705 711 717 722 730 737 743 748 755 760 770
875 872 870 861 846 838 827 827 827 823 814 804 797 793 787 782 777 772 766 761 755 749 744 740 734 729 726 722 717 715 712 709 709 711 715 721 726 732 739 746 752 756 762 765
877 877 880 864 852 853 839 829 826 822 815 808 802 796 791 785 778 773 768 763 760 756 751 746 741 736 732 730 727 721 718 715 715 717 720 725 728 736 741 748 756 763 765 771